CZ-2D DEB, 44606

Orbit data source: Space-Track

CZ-2D DEB, 44606 is space debris in SSO originally from a launch on Fri, 11 Nov 2016 UTC launched from the Jiuquan Satellite Launch Center, China (JSC). Debris objects in space refer to the collection of defunct objects orbiting the Earth. Examples of debris include non-operational satellites, rocket bodies, and fragments generated from explosions, collisions, or faulty payload assembly.

Loading next visibility...
Identifier
44606, 2016-068F
Orbit
SSO
Last TLE update
1 day ago
Origin
Manufacturer
Unknown
Mission
Spacecraft
Bus & Motor
Unknown
Mass
Unknown
Launch date (UTC)
2016-11-11 (8 years ago)
Launch vehicle
Unknown
Launch site
Jiuquan Satellite Launch Center, China (JSC)
Object type
Payload
Rocket body
Debris
Shape & HBR
Unknown
Radar Cross Section
Small (<0.1 m²)

Expand to show TLE details & history

TLE from 1 day ago
0 CZ-2D DEB
1 44606U 16068F   25128.11980930  .00000597  00000-0  40343-3 0  9998
2 44606  98.4370 235.5344 0223663 250.8309 106.8525 13.92421657430057
Epoch: 2025-05-08T02:52Z
Definitive object data (Epoch: 2025-05-08T02:52:31.523Z)
Latitude
0.00003°
Longitude
-33.79182°
Altitude
973.686 km
Speed
7.339 km/s
True Right ascension
15h 42m 08s
True Declination
0° 00' 00"
Sunlit
Object was in full shadow at TLE epoch
Visualization TLE readout
Latitude
23.67839°
Longitude
-36.44933°
Altitude
1,039.265 km
Speed
7.276 km/s
Apparent Right ascension
17h 18m 24s
Apparent Declination
-26° 17' 46"
Sunlit
Object is in full shadow
Visualization observer readout
Local Sidereal Time
14:44:00
Azimuth
144.678° SSE
Elevation
14.661°
Doppler factor
1
Orbital elements
Apogee altitude
1,080.51 km
Perigee altitude
754.165 km
Semi-major axis
7,295.474 km
Eccentricity
0.0223663
Inclination
98.437°
RAAN
235.5344°
Arg. of periapsis
250.8309°
True anomaly
109.28496°
Mean anomaly
106.8525°
Eccentric anomaly
108.07078°
Mean motion
3.48308 °/min
BSTAR
0.00040343
Orbital period
103.36 mins
Loading maneuver chart data...
Loading SW <> Apogee altitude chart data...
Loading historical data...
Loading historical data...
Loading historical data...
Loading historical data...
Loading historical data...
Loading historical data...
Loading historical data...

CZ-2D DEB Visibility forecast

Observer location: undefined°, undefined°

Span
Click to sort rows by Start time (UTC) header in descending order
Start Az.
Max El. time (UTC)
Max El. Az.
Max El.
End time (UTC)
End Az.
11 mins2025-05-09 06:35:08.524Z144.821° SSE2025-05-09 06:40:08.524Z84.926° E39.462°2025-05-09 06:46:08.524Z357.295° N
9 mins2025-05-09 08:19:08.524Z224.11° SW2025-05-09 08:23:08.524Z270.568° WNW22.733°2025-05-09 08:28:08.524Z320.484° NNW
9 mins2025-05-09 19:10:08.524Z38.262° NE2025-05-09 19:14:08.524Z90.304° ESE29.388°2025-05-09 19:19:08.524Z156.781° SSE
9 mins2025-05-09 20:52:08.524Z350.593° N2025-05-09 20:56:08.524Z300.111° NW30.349°2025-05-09 21:01:08.524Z232.256° WSW
|